sat.trackr.live / text

‹ back to catalog

GONETS-M 21

NORAD 47228 · 2020-091B

PAYLOAD ACTIVE UNKNOWN

§ Identity

Operator
Country
CIS
Launch date
2020-12-03
Launch site
PLMSC
Launch vehicle
Mass (kg)
RCS (m²)

External: N2YO · Heavens-Above · Gunter

§ Orbital elements

Epoch: 2026-09-10T05:25:48.762912Z

Period
115.86 min
Inclination
82.4910°
Eccentricity
0.0015086
Mean motion
12.42888848 rev/d
Perigee alt
1,482.5 km
Apogee alt
1,506.3 km
Semi-major
7,872.5 km
B*
1.4076e-4
RAAN
248.2210°
Arg perigee
14.7560°
Mean anomaly
345.3957°
Rev number
26,163

§ Raw data

GONETS-M 211 47228U 20091B   26253.22625883  .00000029  00000+0  14076-3 0  99902 47228  82.4910 248.2210 0015086  14.7560 345.3957 12.42888848261638

JSON: /api/v1/satellites/47228 · /tle

For live sub-satellite position, see the globe view (requires WebGL).

§ Visibility from observer

Set your observer location to see the next 7 days of passes ≥ 10°. The values pass through the URL so the page stays shareable.

No JS? Fill the form by hand. The geolocation button needs JavaScript.

§ Radio — SatNOGS DB

ModeDescriptionDownlinkUplink
FM UHF Unknown 388.787 MHz
FM UHF Unknown 262.910 MHz

2 transmitters · refreshed weekly from db.satnogs.org